• In Kazakhstan
  • List of Countries
  • For 7 days
  • Water Temperature
  • Satellite Maps
  • Weather Map
  • News
  • Weather Widgets
  • user-avatar
    Login

    Hourly Weather Canberra

    Today, 25 June, Tuesday

    Time Temperature Precipitation Wind Pressure Humidity
    00:00 +6°C° 0 mm 1 mps 720 mmHg 92%
    01:00 +6°C° 0 mm 1 mps 720 mmHg 92%
    02:00 +6°C° 0 mm 1 mps 720 mmHg 91%
    03:00 +6°C° 0 mm 1 mps 720 mmHg 90%
    04:00 +5°C° 0 mm 1 mps 720 mmHg 91%
    05:00 +5°C° 0 mm 1 mps 720 mmHg 92%
    06:00 +5°C° 0 mm 1 mps 720 mmHg 92%
    07:00 +4°C° 0 mm 1 mps 720 mmHg 93%
    08:00 +7°C° 0 mm 1 mps 720 mmHg 85%
    09:00 +9°C° 0 mm 1 mps 721 mmHg 77%
    10:00 +11°C° 0 mm 1 mps 721 mmHg 67%
    11:00 +13°C° 0 mm 1 mps 721 mmHg 64%
    12:00 +14°C° 0 mm 1 mps 720 mmHg 61%
    13:00 +15°C° 0 mm 1 mps 720 mmHg 58%
    14:00 +14°C° 0 mm 1 mps 720 mmHg 61%
    15:00 +14°C° 0 mm 1 mps 720 mmHg 64%
    16:00 +13°C° 0 mm 1 mps 720 mmHg 68%
    17:00 +11°C° 0 mm 1 mps 720 mmHg 76%
    18:00 +10°C° 0 mm 1 mps 720 mmHg 84%
    19:00 +8°C° 0 mm 1 mps 721 mmHg 91%
    20:00 +7°C° 0 mm 1 mps 721 mmHg 93%
    21:00 +7°C° 0 mm 1 mps 721 mmHg 94%
    22:00 +7°C° 0 mm 1 mps 721 mmHg 95%
    23:00 +6°C° 0 mm 1 mps 721 mmHg 95%

    Tomorrow, 26 June, Wednesday

    Time Temperature Precipitation Wind Pressure Humidity
    00:00 +6°C° 0 mm 1 mps 721 mmHg 96%
    01:00 +6°C° 0 mm 1 mps 721 mmHg 96%
    02:00 +6°C° 0 mm 1 mps 721 mmHg 95%
    03:00 +6°C° 0 mm 1 mps 721 mmHg 95%
    04:00 +7°C° 0 mm 1 mps 721 mmHg 94%
    05:00 +7°C° 0 mm 1 mps 721 mmHg 92%
    06:00 +7°C° 0 mm 1 mps 722 mmHg 90%
    07:00 +8°C° 0 mm 1 mps 722 mmHg 88%
    08:00 +9°C° 0 mm 1 mps 722 mmHg 81%
    09:00 +11°C° 0 mm 1 mps 723 mmHg 75%
    10:00 +12°C° 0 mm 1 mps 723 mmHg 68%
    11:00 +13°C° 0 mm 1 mps 722 mmHg 65%
    12:00 +13°C° 0 mm 2 mps 722 mmHg 61%
    13:00 +14°C° 0 mm 2 mps 721 mmHg 57%
    14:00 +14°C° 0 mm 2 mps 721 mmHg 60%
    15:00 +13°C° 0 mm 2 mps 721 mmHg 63%
    16:00 +13°C° 0 mm 1 mps 721 mmHg 66%
    17:00 +11°C° 0 mm 1 mps 721 mmHg 74%
    18:00 +9°C° 0 mm 1 mps 721 mmHg 81%
    19:00 +8°C° 0 mm 1 mps 721 mmHg 89%
    20:00 +8°C° 0 mm 1 mps 722 mmHg 90%
    21:00 +8°C° 0 mm 1 mps 722 mmHg 91%
    22:00 +8°C° 0 mm 1 mps 722 mmHg 93%
    23:00 +8°C° 0 mm 1 mps 722 mmHg 92%

    Day after tomorrow, 27 June, Thursday

    Time Temperature Precipitation Wind Pressure Humidity
    00:00 +8°C° 0 mm 1 mps 722 mmHg 92%
    01:00 +7°C° 0 mm 0 mps 722 mmHg 91%
    02:00 +6°C° 0 mm 0 mps 722 mmHg 93%
    03:00 +5°C° 0 mm 0 mps 721 mmHg 94%
    04:00 +4°C° 0 mm 0 mps 721 mmHg 95%
    05:00 +4°C° 0 mm 0 mps 721 mmHg 95%
    06:00 +4°C° 0 mm 1 mps 721 mmHg 95%
    07:00 +4°C° 0 mm 1 mps 722 mmHg 95%
    08:00 +6°C° 0 mm 1 mps 722 mmHg 88%
    09:00 +8°C° 0 mm 1 mps 722 mmHg 81%
    10:00 +10°C° 0 mm 1 mps 722 mmHg 73%
    11:00 +12°C° 0 mm 1 mps 722 mmHg 67%
    12:00 +13°C° 0 mm 1 mps 721 mmHg 61%
    13:00 +14°C° 0 mm 1 mps 720 mmHg 54%
    14:00 +14°C° 0 mm 1 mps 720 mmHg 58%
    15:00 +13°C° 0 mm 1 mps 720 mmHg 62%
    16:00 +12°C° 0 mm 0 mps 719 mmHg 65%
    17:00 +10°C° 0 mm 0 mps 720 mmHg 73%
    18:00 +9°C° 0 mm 1 mps 720 mmHg 81%
    19:00 +7°C° 0 mm 1 mps 720 mmHg 88%
    20:00 +6°C° 0 mm 1 mps 720 mmHg 90%
    21:00 +6°C° 0 mm 1 mps 720 mmHg 91%
    22:00 +6°C° 0 mm 1 mps 721 mmHg 93%
    23:00 +4°C° 0 mm 0 mps 720 mmHg 93%

    28 June, Friday

    Time Temperature Precipitation Wind Pressure Humidity
    00:00 +4°C° 0 mm 0 mps 720 mmHg 94%
    01:00 +4°C° 0 mm 0 mps 720 mmHg 95%
    02:00 +4°C° 0 mm 0 mps 720 mmHg 95%
    03:00 +3°C° 0 mm 0 mps 719 mmHg 94%
    04:00 +3°C° 0 mm 0 mps 719 mmHg 94%
    05:00 +3°C° 0 mm 0 mps 719 mmHg 94%
    06:00 +3°C° 0 mm 0 mps 719 mmHg 94%
    07:00 +3°C° 0 mm 0 mps 720 mmHg 93%
    08:00 +5°C° 0 mm 0 mps 720 mmHg 86%
    09:00 +8°C° 0 mm 0 mps 720 mmHg 79%
    10:00 +10°C° 0 mm 0 mps 720 mmHg 72%
    11:00 +12°C° 0 mm 1 mps 719 mmHg 67%
    12:00 +14°C° 0 mm 2 mps 719 mmHg 61%
    13:00 +14°C° 0 mm 3 mps 718 mmHg 56%
    14:00 +14°C° 0 mm 2 mps 718 mmHg 59%
    15:00 +14°C° 0 mm 2 mps 717 mmHg 62%
    16:00 +13°C° 0 mm 2 mps 717 mmHg 65%
    17:00 +11°C° 0 mm 1 mps 717 mmHg 73%
    18:00 +10°C° 0 mm 1 mps 717 mmHg 81%
    19:00 +8°C° 0 mm 1 mps 717 mmHg 88%
    20:00 +7°C° 0 mm 1 mps 717 mmHg 89%
    21:00 +6°C° 0 mm 0 mps 717 mmHg 90%
    22:00 +6°C° 0 mm 0 mps 717 mmHg 92%
    23:00 +5°C° 0 mm 0 mps 717 mmHg 92%

    29 June, Saturday

    Time Temperature Precipitation Wind Pressure Humidity
    00:00 +5°C° 0 mm 0 mps 717 mmHg 93%
    01:00 +5°C° 0 mm 0 mps 717 mmHg 93%
    02:00 +5°C° 0 mm 0 mps 716 mmHg 93%
    03:00 +5°C° 0 mm 0 mps 716 mmHg 94%
    04:00 +4°C° 0 mm 0 mps 715 mmHg 94%
    05:00 +4°C° 0 mm 0 mps 715 mmHg 94%
    06:00 +4°C° 0 mm 0 mps 715 mmHg 94%
    07:00 +4°C° 0 mm 0 mps 715 mmHg 94%
    08:00 +7°C° 0 mm 1 mps 715 mmHg 86%
    09:00 +9°C° 0 mm 1 mps 714 mmHg 79%
    10:00 +10°C° 0 mm 2 mps 714 mmHg 71%
    11:00 +12°C° 0 mm 3 mps 714 mmHg 66%
    12:00 +13°C° 0 mm 5 mps 713 mmHg 60%
    13:00 +15°C° 0 mm 6 mps 712 mmHg 55%
    14:00 +14°C° 0 mm 6 mps 711 mmHg 58%
    15:00 +14°C° 0 mm 6 mps 710 mmHg 62%
    16:00 +13°C° 0 mm 6 mps 710 mmHg 66%
    17:00 +12°C° 0 mm 5 mps 709 mmHg 71%
    18:00 +10°C° 0 mm 5 mps 709 mmHg 76%
    19:00 +10°C° 0 mm 4 mps 708 mmHg 81%
    20:00 +9°C° 0.2 mm 5 mps 708 mmHg 83%
    21:00 +9°C° 0.2 mm 5 mps 708 mmHg 84%
    22:00 +9°C° 0.2 mm 6 mps 707 mmHg 86%
    23:00 +8°C° 1.5 mm 6 mps 707 mmHg 88%

    30 June, Sunday

    Time Temperature Precipitation Wind Pressure Humidity
    00:00 +6°C° 1.5 mm 5 mps 707 mmHg 89%
    01:00 +4°C° 1.5 mm 4 mps 707 mmHg 91%
    02:00 +4°C° 0.4 mm 4 mps 707 mmHg 92%
    03:00 +4°C° 0.4 mm 4 mps 708 mmHg 93%
    04:00 +4°C° 0.4 mm 4 mps 708 mmHg 94%
    05:00 +4°C° 0 mm 4 mps 708 mmHg 93%
    06:00 +4°C° 0 mm 4 mps 709 mmHg 92%
    07:00 +4°C° 0 mm 4 mps 710 mmHg 91%
    08:00 +3°C° 0 mm 5 mps 710 mmHg 87%
    09:00 +5°C° 0 mm 5 mps 710 mmHg 83%
    10:00 +4°C° 0 mm 6 mps 711 mmHg 78%
    11:00 +5°C° 0 mm 6 mps 711 mmHg 73%
    12:00 +5°C° 0 mm 6 mps 710 mmHg 67%
    13:00 +7°C° 0 mm 6 mps 710 mmHg 61%
    14:00 +7°C° 0 mm 6 mps 710 mmHg 63%
    15:00 +6°C° 0 mm 5 mps 710 mmHg 66%
    16:00 +6°C° 0 mm 5 mps 710 mmHg 68%
    17:00 +5°C° 0 mm 5 mps 711 mmHg 74%
    18:00 +4°C° 0 mm 4 mps 711 mmHg 80%
    19:00 +3°C° 0 mm 4 mps 712 mmHg 85%
    20:00 +2°C° 0 mm 3 mps 712 mmHg 87%
    21:00 +3°C° 0 mm 2 mps 712 mmHg 88%
    22:00 +2°C° 0 mm 2 mps 712 mmHg 89%
    23:00 +3°C° 0 mm 1 mps 712 mmHg 90%
    Show more